Simultaneous Nadir Overpasses (SNOs) Predictions

Prediction of SNOs between AQUA and NOAA-19 Satellite Orbit:

Table of predicted SNOs for the next 14.0 days since TLE Epoch: 10/11/2012
Index Date (AQUA) Time (AQUA) AQUA Lat,Lon Date (NOAA-19) Time (NOAA-19) NOAA-19 Lat,Lon Distance(km) Time Diff (sec)
1 10/11/2012 20:36:00 49.30, 84.39 10/11/2012 20:36:55 49.25, 84.57 13.80 55
2 10/14/2012 00:31:50 -46.03,-155.61 10/14/2012 00:31:33 -45.98,-155.22 31.09 17
3 10/14/2012 01:20:02 50.27, 13.72 10/14/2012 01:21:13 50.22, 13.87 11.74 71
4 10/16/2012 05:16:08 -46.02, 133.31 10/16/2012 05:16:08 -45.97, 133.64 26.25 0
5 10/16/2012 05:56:43 76.05, -30.11 10/16/2012 05:57:56 75.74, -28.40 58.14 73
6 10/18/2012 10:00:08 -47.05, 62.62 10/18/2012 10:00:25 -46.98, 62.91 23.09 17
7 10/18/2012 10:31:14 64.63, 28.38 10/18/2012 10:32:26 64.30, 26.50 97.18 72
8 10/20/2012 13:55:12 46.04,-176.46 10/20/2012 13:54:07 45.93,-175.86 47.83 65
9 10/20/2012 14:44:08 -48.03, -8.07 10/20/2012 14:44:42 -47.98, -7.81 19.93 34
10 10/22/2012 18:39:28 46.05, 112.48 10/22/2012 18:38:41 45.96, 113.02 42.70 47
11 10/22/2012 19:28:07 -49.04, -78.73 10/22/2012 19:28:58 -49.03, -78.49 17.21 51
12 10/24/2012 23:23:44 46.02, 41.40 10/24/2012 23:23:16 45.93, 41.87 37.28 28




NCC Satellite Simultaneous Nadir Overpasses (SNOs) Prediction Service
